When you browse on this site, cookies collect data to enhance your experience and personalize the content and advertising you see.
Visit our Privacy Policy to learn more. By continuing to use the site, you agree to this use of cookies and data.
  • Em Portugal
  • Lista de países
  • Para 7 dias
  • Temperatura da água
  • Mapas de satélite
  • Mapa do tempo
  • Widgets de tempo
  • user-avatar
    Iniciar Sessão

    Previsão horária em Marianka

    Hoje, 16 Janeiro, Quarta-feira

    Tempo Temperatura Precipitação Vento Pressão Humidade
    00:00 -6°C° 0.2 mm 3 m/s 724 mmHg 92%
    01:00 -5°C° 0.2 mm 2 m/s 724 mmHg 95%
    02:00 -3°C° 0 mm 1 m/s 724 mmHg 97%
    03:00 -6°C° 0.1 mm 2 m/s 725 mmHg 97%
    04:00 -6°C° 0.1 mm 2 m/s 726 mmHg 97%
    05:00 -6°C° 0.1 mm 2 m/s 726 mmHg 97%
    06:00 -6°C° 0.1 mm 2 m/s 727 mmHg 96%
    07:00 -6°C° 0.1 mm 3 m/s 728 mmHg 96%
    08:00 -6°C° 0.1 mm 3 m/s 729 mmHg 96%
    09:00 -5°C° 0 mm 2 m/s 729 mmHg 96%
    10:00 -5°C° 0 mm 2 m/s 729 mmHg 96%
    11:00 -5°C° 0 mm 2 m/s 730 mmHg 95%
    12:00 -4°C° 0 mm 2 m/s 730 mmHg 94%
    13:00 -3°C° 0 mm 2 m/s 730 mmHg 93%
    14:00 -3°C° 0 mm 2 m/s 730 mmHg 92%
    15:00 -4°C° 0 mm 3 m/s 730 mmHg 92%
    16:00 -4°C° 0 mm 3 m/s 730 mmHg 93%
    17:00 -4°C° 0 mm 3 m/s 730 mmHg 93%
    18:00 -3°C° 0.2 mm 4 m/s 730 mmHg 94%
    19:00 -2°C° 0.2 mm 5 m/s 729 mmHg 95%
    20:00 -2°C° 0.2 mm 5 m/s 729 mmHg 96%
    21:00 -1°C° 0.1 mm 5 m/s 729 mmHg 96%
    22:00 -2°C° 0.1 mm 6 m/s 729 mmHg 96%
    23:00 -2°C° 0.1 mm 6 m/s 728 mmHg 96%

    Amanhã, 17 Janeiro, Quinta-feira

    Tempo Temperatura Precipitação Vento Pressão Humidade
    00:00 -2°C° 0.1 mm 6 m/s 728 mmHg 97%
    01:00 -2°C° 0.1 mm 6 m/s 728 mmHg 97%
    02:00 -2°C° 0.1 mm 6 m/s 727 mmHg 97%
    03:00 -1°C° 0.1 mm 7 m/s 727 mmHg 97%
    04:00 -1°C° 0.1 mm 7 m/s 727 mmHg 96%
    05:00 -1°C° 0.1 mm 7 m/s 726 mmHg 96%
    06:00 -2°C° 0.3 mm 7 m/s 726 mmHg 94%
    07:00 -2°C° 0.3 mm 8 m/s 725 mmHg 92%
    08:00 -2°C° 0.3 mm 8 m/s 724 mmHg 91%
    09:00 -3°C° 0.2 mm 9 m/s 724 mmHg 89%
    10:00 -3°C° 0.2 mm 9 m/s 724 mmHg 88%
    11:00 -3°C° 0.2 mm 9 m/s 724 mmHg 87%
    12:00 -3°C° 0.2 mm 9 m/s 724 mmHg 88%
    13:00 -2°C° 0.2 mm 8 m/s 724 mmHg 89%
    14:00 -1°C° 0.2 mm 8 m/s 724 mmHg 90%
    15:00 -1°C° 0 mm 8 m/s 724 mmHg 88%
    16:00 -2°C° 0 mm 7 m/s 724 mmHg 86%
    17:00 -2°C° 0 mm 7 m/s 724 mmHg 83%
    18:00 -2°C° 0 mm 7 m/s 724 mmHg 83%
    19:00 -2°C° 0 mm 7 m/s 725 mmHg 83%
    20:00 -2°C° 0 mm 7 m/s 725 mmHg 83%
    21:00 -2°C° 0 mm 7 m/s 725 mmHg 84%
    22:00 -2°C° 0 mm 7 m/s 725 mmHg 85%
    23:00 -2°C° 0 mm 7 m/s 725 mmHg 86%

    Depois de amanhã, 18 Janeiro, Sexta-feira

    Tempo Temperatura Precipitação Vento Pressão Humidade
    00:00 -2°C° 0.1 mm 6 m/s 725 mmHg 88%
    01:00 -1°C° 0.1 mm 5 m/s 725 mmHg 89%
    02:00 -1°C° 0.1 mm 5 m/s 724 mmHg 91%
    03:00 -2°C° 0 mm 5 m/s 724 mmHg 88%
    04:00 -4°C° 0 mm 5 m/s 724 mmHg 85%
    05:00 -5°C° 0 mm 6 m/s 724 mmHg 82%
    06:00 -5°C° 0.6 mm 6 m/s 724 mmHg 86%
    07:00 -5°C° 0.6 mm 6 m/s 725 mmHg 89%
    08:00 -5°C° 0.6 mm 6 m/s 725 mmHg 93%
    09:00 -6°C° 0.4 mm 7 m/s 726 mmHg 91%
    10:00 -6°C° 0.4 mm 7 m/s 727 mmHg 89%
    11:00 -7°C° 0.4 mm 8 m/s 728 mmHg 87%
    12:00 -7°C° 0 mm 7 m/s 729 mmHg 87%
    13:00 -5°C° 0 mm 6 m/s 730 mmHg 86%
    14:00 -5°C° 0 mm 5 m/s 732 mmHg 85%
    15:00 -6°C° 0.1 mm 5 m/s 733 mmHg 84%
    16:00 -6°C° 0.1 mm 5 m/s 734 mmHg 83%
    17:00 -7°C° 0.1 mm 5 m/s 735 mmHg 82%
    18:00 -7°C° 0 mm 5 m/s 736 mmHg 84%
    19:00 -7°C° 0 mm 5 m/s 736 mmHg 86%
    20:00 -7°C° 0 mm 4 m/s 737 mmHg 87%
    21:00 -7°C° 0 mm 5 m/s 737 mmHg 87%
    22:00 -7°C° 0 mm 5 m/s 738 mmHg 86%
    23:00 -7°C° 0 mm 5 m/s 738 mmHg 85%

    19 Janeiro, Sábado

    Tempo Temperatura Precipitação Vento Pressão Humidade
    00:00 -8°C° 0 mm 5 m/s 739 mmHg 85%
    01:00 -8°C° 0 mm 5 m/s 739 mmHg 85%
    02:00 -8°C° 0 mm 4 m/s 740 mmHg 86%
    03:00 -8°C° 0 mm 4 m/s 740 mmHg 87%
    04:00 -8°C° 0 mm 4 m/s 740 mmHg 89%
    05:00 -8°C° 0 mm 4 m/s 739 mmHg 91%
    06:00 -8°C° 0.2 mm 4 m/s 740 mmHg 92%
    07:00 -7°C° 0.2 mm 4 m/s 740 mmHg 93%
    08:00 -7°C° 0.2 mm 4 m/s 740 mmHg 94%
    09:00 -6°C° 0.3 mm 5 m/s 740 mmHg 93%
    10:00 -5°C° 0.3 mm 5 m/s 740 mmHg 92%
    11:00 -5°C° 0.3 mm 5 m/s 740 mmHg 90%
    12:00 -4°C° 0 mm 5 m/s 740 mmHg 90%
    13:00 -4°C° 0 mm 5 m/s 740 mmHg 91%
    14:00 -3°C° 0 mm 4 m/s 740 mmHg 91%
    15:00 -4°C° 0 mm 4 m/s 740 mmHg 91%
    16:00 -5°C° 0 mm 4 m/s 740 mmHg 92%
    17:00 -6°C° 0 mm 3 m/s 740 mmHg 93%
    18:00 -7°C° 0 mm 4 m/s 740 mmHg 93%
    19:00 -7°C° 0 mm 4 m/s 740 mmHg 93%
    20:00 -8°C° 0 mm 4 m/s 740 mmHg 93%
    21:00 -8°C° 0 mm 4 m/s 740 mmHg 94%
    22:00 -8°C° 0 mm 4 m/s 740 mmHg 94%
    23:00 -8°C° 0 mm 4 m/s 740 mmHg 94%

    20 Janeiro, Domingo

    Tempo Temperatura Precipitação Vento Pressão Humidade
    00:00 -7°C° 0 mm 4 m/s 740 mmHg 94%
    01:00 -7°C° 0 mm 4 m/s 740 mmHg 95%
    02:00 -7°C° 0 mm 4 m/s 740 mmHg 95%
    03:00 -6°C° 0.2 mm 3 m/s 740 mmHg 95%
    04:00 -5°C° 0.2 mm 3 m/s 740 mmHg 95%
    05:00 -5°C° 0.2 mm 3 m/s 740 mmHg 96%
    06:00 -4°C° 0.1 mm 2 m/s 740 mmHg 96%
    07:00 -5°C° 0.1 mm 2 m/s 740 mmHg 97%
    08:00 -3°C° 0.1 mm 1 m/s 740 mmHg 97%
    09:00 -4°C° 0 mm 2 m/s 740 mmHg 97%
    10:00 -4°C° 0 mm 2 m/s 740 mmHg 97%
    11:00 -4°C° 0 mm 2 m/s 740 mmHg 96%
    12:00 -3°C° 0.2 mm 2 m/s 740 mmHg 92%
    13:00 -4°C° 0.2 mm 3 m/s 739 mmHg 87%
    14:00 -2°C° 0.2 mm 3 m/s 739 mmHg 82%
    15:00 -4°C° 0 mm 3 m/s 739 mmHg 85%
    16:00 -5°C° 0 mm 3 m/s 740 mmHg 87%
    17:00 -6°C° 0 mm 3 m/s 740 mmHg 90%
    18:00 -7°C° 0 mm 3 m/s 740 mmHg 90%
    19:00 -7°C° 0 mm 3 m/s 741 mmHg 90%
    20:00 -8°C° 0 mm 3 m/s 741 mmHg 90%
    21:00 -9°C° 0 mm 3 m/s 742 mmHg 90%
    22:00 -9°C° 0 mm 3 m/s 742 mmHg 91%
    23:00 -9°C° 0 mm 3 m/s 743 mmHg 92%

    21 Janeiro, Segunda-feira

    Tempo Temperatura Precipitação Vento Pressão Humidade
    00:00 -9°C° 0 mm 3 m/s 743 mmHg 92%
    01:00 -10°C° 0 mm 3 m/s 743 mmHg 92%
    02:00 -10°C° 0 mm 3 m/s 744 mmHg 92%
    03:00 -10°C° 0 mm 3 m/s 744 mmHg 93%
    04:00 -10°C° 0 mm 3 m/s 744 mmHg 94%
    05:00 -10°C° 0 mm 3 m/s 745 mmHg 95%
    06:00 -10°C° 0 mm 3 m/s 745 mmHg 94%
    07:00 -10°C° 0 mm 3 m/s 745 mmHg 94%
    08:00 -10°C° 0 mm 3 m/s 746 mmHg 93%
    09:00 -10°C° 0 mm 3 m/s 746 mmHg 92%
    10:00 -9°C° 0 mm 3 m/s 747 mmHg 91%
    11:00 -8°C° 0 mm 3 m/s 747 mmHg 90%
    12:00 -7°C° 0 mm 3 m/s 747 mmHg 90%
    13:00 -7°C° 0 mm 3 m/s 747 mmHg 89%
    14:00 -6°C° 0 mm 3 m/s 748 mmHg 89%
    15:00 -6°C° 0 mm 2 m/s 748 mmHg 90%
    16:00 -6°C° 0 mm 2 m/s 748 mmHg 91%
    17:00 -7°C° 0 mm 2 m/s 748 mmHg 92%
    18:00 -7°C° 0 mm 2 m/s 748 mmHg 90%
    19:00 -7°C° 0 mm 2 m/s 748 mmHg 89%
    20:00 -8°C° 0 mm 3 m/s 748 mmHg 88%
    21:00 -8°C° 0 mm 3 m/s 748 mmHg 88%
    22:00 -8°C° 0 mm 3 m/s 748 mmHg 88%
    23:00 -8°C° 0 mm 3 m/s 748 mmHg 88%
    Mostrar mais